Volver al catálogo

SYRACUSE 4B

ActivoMilitarGEO
NORAD 57214·PAYLOAD·🇫🇷 France

Lanzado Jul 5, 2023 desde Guiana Space Centre

Loading…

TLE

ActualizadoSource: Space-Track

Época: Sep 14, 2026, 00:53 UTC

1 57214U 23093B   26257.03725449  .00000000  00000-0  00000-0 0  9992
2 57214   0.0207 171.5296 0000247  93.2254  95.2422  1.00269450  7861

Sigue SYRACUSE 4B en tiempo real con AllMySat

Download on the App Store